Total_Precipitation_Accumulation
0.11 0.06 0.12 0.10 0.07 0.08 0.10 0.12 0.15 0.15 0.16 0.17 0.19 0.18 0.15 0.11 0.09 0.10 0.14 0.15 0.15 0.16 0.17 0.20 0.26 0.29 0.32 0.34 0.33 0.30 0.27 0.25 0.30 0.30 0.29 0.33 0.39 0.54 0.66 0.67 0.70 0.49 0.40
0.08 0.05 0.11 0.10 0.08 0.08 0.10 0.14 0.14 0.13 0.13 0.15 0.18 0.17 0.14 0.11 0.10 0.09 0.12 0.14 0.13 0.12 0.13 0.17 0.18 0.20 0.24 0.25 0.21 0.19 0.20 0.20 0.26 0.29 0.29 0.28 0.35 0.54 0.67 0.65 0.74 0.44 0.34
0.06 0.05 0.09 0.11 0.09 0.08 0.10 0.13 0.16 0.16 0.13 0.13 0.14 0.15 0.13 0.12 0.12 0.12 0.12 0.17 0.19 0.17 0.14 0.13 0.14 0.14 0.17 0.17 0.14 0.13 0.16 0.20 0.28 0.37 0.48 0.42 0.28 0.56 0.70 0.65 0.49 0.30 0.30
0.07 0.07 0.07 0.09 0.09 0.09 0.09 0.11 0.15 0.16 0.16 0.17 0.18 0.15 0.14 0.14 0.14 0.13 0.13 0.15 0.18 0.15 0.14 0.10 0.10 0.10 0.10 0.08 0.09 0.12 0.17 0.25 0.34 0.54 0.82 0.70 0.36 0.49 0.61 0.54 0.41 0.30 0.30
0.10 0.07 0.10 0.10 0.09 0.11 0.10 0.11 0.14 0.16 0.18 0.20 0.19 0.18 0.17 0.15 0.15 0.14 0.13 0.14 0.15 0.12 0.11 0.10 0.10 0.09 0.07 0.06 0.07 0.12 0.18 0.26 0.37 0.62 0.73 0.70 0.61 0.51 0.47 0.45 0.42 0.42 0.37
0.14 0.10 0.13 0.15 0.12 0.13 0.12 0.14 0.16 0.17 0.18 0.18 0.17 0.15 0.15 0.16 0.17 0.16 0.14 0.16 0.18 0.17 0.14 0.14 0.13 0.12 0.09 0.06 0.07 0.11 0.16 0.28 0.39 0.45 0.46 0.48 0.52 0.50 0.49 0.53 0.54 0.52 0.46
0.27 0.19 0.21 0.23 0.19 0.16 0.14 0.15 0.17 0.17 0.19 0.18 0.16 0.15 0.14 0.16 0.16 0.16 0.15 0.14 0.15 0.18 0.18 0.18 0.17 0.12 0.13 0.12 0.11 0.12 0.19 0.33 0.42 0.43 0.35 0.55 0.55 0.38 0.51 0.68 0.80 0.73 0.60
0.41 0.36 0.27 0.26 0.22 0.20 0.18 0.17 0.18 0.17 0.17 0.19 0.19 0.16 0.15 0.14 0.15 0.16 0.17 0.15 0.12 0.12 0.14 0.17 0.20 0.16 0.13 0.17 0.16 0.15 0.21 0.29 0.34 0.38 0.33 0.45 0.41 0.36 0.53 0.76 0.90 0.87 0.75
0.51 0.46 0.37 0.31 0.26 0.23 0.21 0.20 0.20 0.20 0.20 0.19 0.18 0.18 0.17 0.15 0.15 0.16 0.17 0.17 0.15 0.13 0.12 0.14 0.15 0.14 0.13 0.16 0.21 0.23 0.26 0.36 0.43 0.47 0.43 0.55 0.47 0.52 0.71 0.88 1.01 0.99 0.92
0.72 0.54 0.47 0.45 0.39 0.32 0.28 0.27 0.27 0.24 0.24 0.23 0.21 0.22 0.24 0.25 0.22 0.24 0.22 0.21 0.22 0.21 0.18 0.17 0.18 0.18 0.18 0.18 0.20 0.31 0.42 0.41 0.32 0.42 0.59 0.54 0.51 0.72 0.98 1.08 1.18 1.19 1.13
0.96 0.77 0.63 0.58 0.55 0.49 0.44 0.40 0.38 0.37 0.35 0.33 0.34 0.33 0.34 0.36 0.40 0.44 0.39 0.41 0.39 0.39 0.41 0.41 0.42 0.40 0.37 0.28 0.32 0.50 0.54 0.35 0.44 0.63 0.69 0.54 0.66 0.96 1.23 1.30 1.32 1.34 1.31
1.12 0.92 0.85 0.79 0.70 0.62 0.52 0.55 0.61 0.56 0.54 0.53 0.61 0.59 0.59 0.67 0.64 0.52 0.58 0.71 0.86 0.92 0.90 0.98 1.08 0.88 0.69 0.70 1.15 1.16 0.49 0.40 0.64 0.76 0.81 0.70 0.90 1.28 1.49 1.58 1.55 1.47 1.43
1.45 1.20 1.08 0.97 0.87 0.86 0.85 0.77 0.80 0.77 0.82 0.82 0.89 0.96 0.97 0.89 0.76 0.71 0.84 1.04 1.22 1.28 1.26 1.57 1.63 1.20 1.27 1.55 1.66 1.39 0.75 0.69 0.88 0.91 1.11 1.12 1.16 1.59 1.98 1.98 1.92 1.75 1.61
1.74 1.49 1.32 1.20 1.15 1.12 1.05 1.01 0.97 0.98 1.04 1.10 1.21 1.24 1.35 1.38 1.26 1.24 1.33 1.41 1.57 1.66 1.86 2.00 2.12 1.85 1.86 1.77 1.63 1.46 1.26 1.29 1.21 1.42 1.79 1.64 1.39 1.63 2.30 2.44 2.31 2.10 1.76
1.84 1.63 1.61 1.39 1.29 1.29 1.34 1.40 1.35 1.41 1.41 1.42 1.53 1.61 1.69 1.86 1.83 1.79 1.70 1.73 1.69 1.87 2.06 2.33 2.27 2.51 2.47 2.20 1.86 1.66 1.65 1.61 1.51 1.70 1.96 2.02 1.86 1.89 2.54 2.94 2.80 2.51 2.12
1.83 1.73 1.69 1.58 1.60 1.69 1.69 1.70 1.81 1.87 1.85 1.84 1.83 1.88 1.93 2.11 2.31 2.23 2.03 2.00 1.89 1.96 2.24 2.49 2.51 2.89 2.74 2.59 2.11 1.95 1.79 1.67 1.62 1.77 1.96 2.19 2.14 2.11 2.40 2.82 3.03 2.95 2.61
1.60 1.70 1.87 2.01 2.11 2.22 2.28 2.31 2.29 2.33 2.22 2.19 2.32 2.40 2.42 2.41 2.45 2.32 2.17 2.08 2.20 2.34 2.51 2.55 2.65 2.95 2.68 2.56 2.34 2.17 1.95 1.74 1.65 1.83 2.05 2.34 2.16 2.08 2.34 2.66 2.99 2.94 2.77
1.51 1.66 1.93 2.13 2.41 2.58 2.64 2.76 2.76 2.69 2.55 2.60 2.60 2.64 2.64 2.54 2.45 2.51 2.27 2.09 2.36 2.51 2.68 2.81 2.78 2.84 2.82 2.75 2.57 2.23 2.04 1.89 1.70 1.77 1.87 2.01 2.13 1.78 2.10 2.58 2.73 2.61 2.62
1.80 2.07 2.40 2.50 2.49 2.57 2.77 2.92 2.77 2.67 2.52 2.49 2.45 2.44 2.40 2.37 2.39 2.64 2.43 2.40 2.58 2.78 2.68 2.51 2.83 2.94 2.85 2.82 2.53 2.33 1.95 1.77 1.70 1.63 1.72 1.80 1.96 1.89 1.83 1.99 2.39 2.33 2.52
2.19 2.49 2.58 2.63 2.83 3.14 3.38 3.29 3.01 2.67 2.43 2.31 2.22 2.15 2.16 2.28 2.35 2.61 2.40 2.45 2.67 2.83 2.87 2.86 2.91 2.89 2.75 2.81 2.50 2.25 1.92 1.58 1.50 1.45 1.40 1.54 1.60 1.44 1.48 1.61 1.90 1.70 1.89
2.26 2.43 2.61 2.92 3.28 3.41 3.37 3.34 3.26 2.92 2.60 2.24 2.01 2.01 2.08 2.10 2.26 2.53 2.27 2.56 2.71 2.71 2.82 2.87 3.00 2.87 2.71 2.89 2.74 2.24 1.76 1.45 1.27 1.16 1.18 1.28 1.25 1.32 1.54 1.79 1.99 1.97 1.75
2.22 2.45 2.74 3.03 3.34 3.27 3.41 3.59 3.48 3.20 2.62 2.24 2.05 2.01 2.05 2.10 2.17 2.33 2.59 2.64 2.71 2.73 2.75 2.73 2.76 2.57 2.39 2.73 2.73 2.51 1.92 1.54 1.23 1.05 1.20 1.17 1.25 1.50 1.52 1.56 1.82 2.07 1.94
2.35 2.71 2.94 3.11 3.18 3.17 3.30 3.38 3.09 2.85 2.43 2.30 2.28 2.17 2.11 2.22 2.27 2.40 2.57 2.65 2.58 2.49 2.52 2.62 2.53 2.39 2.22 2.36 2.62 2.63 2.12 1.64 1.31 1.08 1.11 1.17 1.46 1.60 1.49 1.46 1.47 1.54 1.61
2.38 2.75 3.08 3.06 3.03 2.96 3.06 3.13 2.97 2.70 2.42 2.32 2.33 2.12 1.98 1.95 2.01 2.13 2.20 2.36 2.42 2.41 2.37 2.33 2.31 2.32 2.23 2.11 2.35 2.43 2.28 2.01 1.73 1.26 1.03 1.09 1.33 1.42 1.36 1.25 1.29 1.42 1.52
2.08 2.38 2.66 2.85 2.89 2.80 2.76 2.72 2.70 2.51 2.26 2.12 2.06 1.94 1.88 1.91 1.83 1.83 1.93 2.12 2.18 2.10 2.09 2.23 2.39 2.36 2.20 2.05 2.14 2.25 2.39 2.32 2.01 1.64 1.22 1.13 1.14 1.08 1.19 1.21 1.21 1.27 1.46
1.87 2.13 2.31 2.44 2.49 2.44 2.35 2.31 2.34 2.27 2.22 2.07 1.92 1.92 1.95 1.88 1.75 1.69 1.72 1.83 1.91 1.90 1.87 1.91 2.02 2.05 2.03 2.11 2.13 2.14 2.25 2.24 2.12 2.00 1.59 1.36 1.21 0.95 1.00 1.07 1.14 1.19 1.29